Snowfall_Accumulation
0.0 0.0 0.0 0.0 0.0 0.0 0.0 0.0 0.0 0.0 0.0 0.0 0.0 0.0 0.0 0.0 0.0 0.0 0.0 0.0 0.0 0.0
0.0 0.0 0.0 0.0 0.0 0.0 0.0 0.0 0.0 0.0 0.0 0.0 0.0 0.0 0.0 0.0 0.0 0.0 0.0 0.0 0.0 0.1
0.0 0.0 0.0 0.0 0.0 0.0 0.0 0.0 0.0 0.0 0.0 0.0 0.0 0.0 0.0 0.1 0.1 0.0 0.2 0.1 0.0 0.0
0.0 0.0 0.0 0.0 0.0 0.0 0.0 0.0 0.0 0.0 0.0 0.0 0.0 0.0 0.0 0.0 0.0 0.0 0.0 0.0 0.0 0.0
0.0 0.0 0.0 0.1 0.1 0.0 0.1 0.1 0.1 0.1 0.1 0.1 0.0 0.0 0.0 0.1 0.1 0.1 0.1 0.1 0.1 0.1
0.1 0.2 1.1 2.3 1.2 0.3 1.3 1.3 0.4 0.1 0.1 0.4 0.5 0.4 0.1 0.1 0.1 0.1 0.1 0.1 0.1 0.1
0.3 0.3 1.1 2.5 3.8 3.7 2.2 1.7 1.5 1.0 1.6 1.8 1.5 1.0 1.0 0.2 0.3 0.4 0.3 0.2 0.1 0.1
1.9 1.6 2.9 5.1 5.3 4.8 3.5 3.0 3.4 3.2 2.7 2.2 1.4 0.3 0.3 0.2 0.3 0.3 0.6 0.5 0.2 0.1
5.3 4.7 5.2 8.0 7.5 6.3 5.4 5.3 4.8 3.8 2.9 2.5 0.7 nan nan 0.1 0.2 0.3 0.4 0.6 0.5 0.3
9.4 7.3 8.2 7.6 7.5 6.6 5.3 4.2 5.3 4.6 2.4 2.5 1.0 nan nan nan 0.4 0.4 0.5 0.5 0.4 0.5
9.1 7.8 7.0 7.3 7.4 6.8 4.3 4.9 3.5 3.8 3.5 2.6 1.9 nan nan nan 1.4 1.9 2.2 1.1 0.9 0.4
7.4 9.2 8.3 8.4 8.7 5.6 3.1 2.1 3.0 3.3 3.3 2.2 4.1 nan nan 1.9 2.6 2.1 3.1 3.1 2.0 1.6
6.9 6.6 7.9 5.4 6.7 6.7 3.4 3.5 2.6 2.8 3.0 1.8 2.8 nan nan nan 1.9 2.2 3.5 4.0 3.9 1.9
4.3 4.5 3.8 2.8 2.3 2.6 2.9 2.9 3.2 2.9 2.7 3.6 2.3 3.7 nan nan 3.0 4.9 4.5 4.5 5.2 4.5
Water_Equivalent
0.00 0.00 0.00 0.00 0.00 0.00 0.00 0.00 0.00 0.00 0.00 0.00 0.00 0.00 0.00 0.00 0.00 0.00 0.00 0.00 0.00 0.01
0.00 0.00 0.00 0.00 0.00 0.00 0.00 0.00 0.00 0.00 0.00 0.00 0.00 0.00 0.00 0.02 0.00 0.01 0.00 0.00 0.00 0.02
0.00 0.00 0.00 0.00 0.00 0.00 0.00 0.00 0.00 0.00 0.00 0.00 0.00 0.00 0.00 0.03 0.03 0.00 0.07 0.03 0.00 0.01
0.00 0.00 0.00 0.00 0.00 0.00 0.00 0.00 0.00 0.01 0.01 0.01 0.01 0.00 0.00 0.01 0.00 0.01 0.01 0.00 0.00 0.00
0.00 0.00 0.01 0.03 0.02 0.02 0.05 0.02 0.05 0.03 0.04 0.02 0.01 0.01 0.01 0.02 0.02 0.02 0.03 0.03 0.03 0.02
0.03 0.07 0.35 0.69 0.39 0.11 0.46 0.51 0.16 0.05 0.05 0.12 0.16 0.13 0.04 0.03 0.04 0.03 0.03 0.03 0.03 0.03
0.10 0.09 0.35 0.81 1.28 1.24 0.77 0.58 0.50 0.36 0.58 0.61 0.55 0.35 0.39 0.09 0.11 0.14 0.09 0.07 0.04 0.03
0.56 0.50 0.89 1.49 1.56 1.41 1.15 0.99 1.08 0.97 0.77 0.63 0.42 0.11 0.12 0.08 0.08 0.09 0.16 0.15 0.07 0.05
1.50 1.38 1.36 1.88 1.50 1.33 1.13 1.33 1.14 0.91 0.74 0.62 0.21 nan nan 0.04 0.06 0.08 0.10 0.16 0.15 0.10
2.22 1.53 1.63 1.55 1.54 1.25 1.02 1.01 1.13 0.88 0.57 0.60 0.26 nan nan nan 0.12 0.11 0.11 0.11 0.09 0.13
1.90 1.50 1.37 1.33 1.25 1.42 1.00 1.20 0.79 0.90 0.80 0.62 0.65 nan nan nan 0.33 0.36 0.42 0.24 0.18 0.09
1.42 1.65 1.38 1.27 1.39 1.00 0.57 0.40 0.55 0.72 0.70 0.47 0.99 nan nan 0.38 0.51 0.39 0.62 0.64 0.50 0.37
1.25 1.18 1.14 0.81 0.96 1.19 0.64 0.65 0.54 0.48 0.53 0.51 0.60 nan nan nan 0.41 0.41 0.66 0.70 0.74 0.60
0.72 0.74 0.62 0.45 0.37 0.38 0.43 0.47 0.49 0.42 0.43 0.55 0.46 0.66 nan nan 0.59 0.94 0.78 0.77 0.89 0.81
SL_Ratio
nan nan nan nan nan nan nan nan nan nan nan nan nan nan nan nan nan nan nan nan nan 2.5
nan nan nan nan nan nan nan nan nan nan nan nan nan nan nan 2.5 2.9 2.7 2.5 3.3 2.0 2.7
nan nan nan nan nan nan nan nan nan nan nan nan nan nan nan 2.7 2.7 nan 2.7 2.7 nan 2.7
nan nan nan nan nan nan 3.3 nan 2.9 2.5 2.5 2.5 2.8 1.7 3.0 3.0 3.0 3.2 3.2 2.5 3.0 3.6
nan nan 3.0 2.9 3.0 2.8 2.8 2.7 2.5 2.5 2.6 2.6 2.9 2.8 3.3 3.2 2.9 3.2 3.2 3.0 3.4 3.2
3.0 3.1 3.3 3.3 3.2 2.8 2.8 2.6 2.6 2.7 2.9 3.1 3.0 2.7 2.9 3.0 3.0 3.0 2.9 2.9 3.2 3.0
3.2 3.3 3.2 3.1 3.0 3.0 2.8 2.9 2.9 2.9 2.8 2.9 2.7 2.7 2.5 2.8 2.8 3.0 3.0 2.9 2.8 2.8
3.4 3.2 3.3 3.4 3.4 3.4 3.1 3.0 3.2 3.3 3.5 3.5 3.4 3.1 2.8 2.7 3.2 3.4 3.5 3.5 3.2 3.0
3.5 3.4 3.8 4.3 5.0 4.7 4.8 4.0 4.3 4.2 4.0 4.1 3.4 nan nan 3.1 3.5 3.6 3.8 3.9 3.6 3.4
4.2 4.8 5.0 4.9 4.9 5.3 5.2 4.1 4.7 5.2 4.3 4.2 3.7 nan nan nan 3.8 4.0 4.1 4.1 4.1 4.1
4.8 5.2 5.1 5.5 5.9 4.8 4.3 4.1 4.4 4.2 4.5 4.3 3.0 nan nan nan 4.3 5.4 5.2 4.7 4.8 4.6
5.2 5.6 6.0 6.6 6.2 5.6 5.5 5.4 5.4 4.7 4.7 4.6 4.2 nan nan 5.0 5.1 5.4 5.0 4.8 3.9 4.3
5.6 5.6 7.0 6.6 7.0 5.7 5.3 5.5 4.9 5.8 5.6 3.6 4.7 nan nan nan 4.6 5.3 5.2 5.8 5.3 3.2
6.0 6.1 6.2 6.2 6.1 6.7 6.7 6.2 6.4 7.0 6.4 6.5 5.0 5.7 nan nan 5.2 5.2 5.7 5.8 5.8 5.5